TimeCST,TemperatureF,Dew PointF,Humidity,Sea Level PressureIn,VisibilityMPH,Wind Direction,Wind SpeedMPH,Gust SpeedMPH,PrecipitationIn,Events,Conditions,WindDirDegrees,DateUTC
12:53 AM,44.1,42.1,93,30.29,8.0,Calm,Calm,-,N/A,,Clear,0,2012-11-29 06:53:00
1:53 AM,43.0,41.0,93,30.27,6.0,Calm,Calm,-,N/A,,Clear,0,2012-11-29 07:53:00
2:53 AM,43.0,39.9,89,30.26,6.0,Calm,Calm,-,N/A,,Clear,0,2012-11-29 08:53:00
3:35 AM,42.8,41.0,93,30.25,6.0,Calm,Calm,-,N/A,,Mostly Cloudy,0,2012-11-29 09:35:00
3:49 AM,42.8,39.2,87,30.25,6.0,Calm,Calm,-,N/A,,Scattered Clouds,0,2012-11-29 09:49:00
3:53 AM,44.1,42.1,93,30.25,5.0,Calm,Calm,-,N/A,,Scattered Clouds,0,2012-11-29 09:53:00
4:53 AM,42.1,41.0,96,30.23,4.0,Calm,Calm,-,N/A,,Clear,0,2012-11-29 10:53:00
5:53 AM,43.0,42.1,97,30.23,4.0,Calm,Calm,-,N/A,,Clear,0,2012-11-29 11:53:00
6:53 AM,45.0,43.0,93,30.25,4.0,Calm,Calm,-,N/A,,Clear,0,2012-11-29 12:53:00
7:53 AM,46.0,45.0,96,30.26,5.0,Calm,Calm,-,N/A,,Scattered Clouds,0,2012-11-29 13:53:00
8:53 AM,51.1,48.0,89,30.26,4.0,ENE,4.6,-,N/A,,Clear,70,2012-11-29 14:53:00
9:53 AM,57.0,50.0,77,30.27,6.0,East,4.6,-,N/A,,Haze,100,2012-11-29 15:53:00
10:53 AM,62.1,51.1,67,30.25,8.0,Variable,3.5,-,N/A,,Clear,0,2012-11-29 16:53:00
11:53 AM,64.9,52.0,63,30.23,10.0,Variable,3.5,-,N/A,,Clear,0,2012-11-29 17:53:00
12:53 PM,68.0,53.1,59,30.19,10.0,SE,6.9,-,N/A,,Scattered Clouds,140,2012-11-29 18:53:00
1:53 PM,70.0,53.1,55,30.15,10.0,South,4.6,-,N/A,,Overcast,170,2012-11-29 19:53:00
2:53 PM,70.0,53.1,55,30.13,10.0,South,5.8,-,N/A,,Overcast,170,2012-11-29 20:53:00
3:53 PM,70.0,53.1,55,30.12,10.0,South,6.9,-,N/A,,Overcast,180,2012-11-29 21:53:00
4:53 PM,69.1,54.0,58,30.12,10.0,SSE,3.5,-,N/A,,Overcast,150,2012-11-29 22:53:00
5:53 PM,68.0,54.0,61,30.12,10.0,Calm,Calm,-,N/A,,Overcast,0,2012-11-29 23:53:00
6:53 PM,66.0,55.9,70,30.14,10.0,Calm,Calm,-,N/A,,Overcast,0,2012-11-30 00:53:00
7:53 PM,64.9,55.9,73,30.15,10.0,Calm,Calm,-,N/A,,Overcast,0,2012-11-30 01:53:00
8:53 PM,66.0,55.9,70,30.14,10.0,ESE,4.6,-,N/A,,Overcast,120,2012-11-30 02:53:00
9:53 PM,64.9,55.9,73,30.15,10.0,SSE,3.5,-,N/A,,Overcast,150,2012-11-30 03:53:00
10:53 PM,64.0,57.0,78,30.15,10.0,SSE,3.5,-,N/A,,Overcast,150,2012-11-30 04:53:00
11:53 PM,63.0,59.0,87,30.15,10.0,SE,4.6,-,N/A,,Overcast,130,2012-11-30 05:53:00